COSMOS 2251 DEB, 39591

Orbit data source: Space-Track

COSMOS 2251 DEB, 39591 is space debris in LEO originally from a launch on Wed, 16 Jun 1993 UTC launched from the Plesetsk Missile And Space Complex (PKMTR). The debris from Iridium 33, an American commercial communications satellite, has been tracked extensively since its accidental collision with the defunct Russian satellite Cosmos 2251 in 2009. This event, occurring at high speed in low Earth orbit (LEO), generated thousands of pieces of space debris, significantly increasing the risk of further collisions. The Iridium 33 debris cloud has impacted space traffic management and orbital debris mitigation strategies, making it a subject of ongoing study in space situational awareness.

Loading next visibility...
Identifier
39591, 1993-036BUW
Orbit
LEO
Country
Flag of CISCIS
Related business
Manufacturer
Unknown
Mission
Spacecraft
Bus & Motor
Unknown
Mass
Unknown
Launch date (UTC)
1993-06-16 (33 years ago)
Launch vehicle
Unknown
Launch site
Plesetsk Missile And Space Complex (PKMTR)
Object type
Payload
Rocket body
Debris
Shape & HBR
Unknown shape, 0.1 m
Radar Cross Section
Small (<0.1 m²)

Expand to show TLE details & history
Last TLE update: 23 hours ago

TLE from 23 hours ago
0 COSMOS 2251 DEB
1 39591U 93036BUW 26122.87650093  .00001011  00000-0  31349-3 0  9995
2 39591  74.0210 344.8739 0028778  66.9009 308.9326 14.42206787638114
Epoch: 2026-05-02T21:02Z
TLE epoch observation values (Epoch: 2026-05-02T21:02:09.680Z)
Latitude
14.94104°
Longitude
172.90427°
Altitude
740.266 km
Speed
7.493 km/s
True Right ascension
23h 16m 55s
True Declination
14° 51' 19"
Sunlit
Object was in daylight at epoch
Visualization orbit readout
Latitude
Unknown
Longitude
Unknown
Altitude
Unknown
Speed
Unknown
Apparent Right ascension
Unknown
Apparent Declination
Unknown
Sunlit
N/A
Visualization observer readout
Local Sidereal Time
03:58:19
Azimuth
Unknown
Elevation
Unknown
Doppler factor
Unknown
Orbital elements
Apogee altitude
769.345 km
Perigee altitude
728.325 km
Semi-major axis
7,126.972 km
Eccentricity
0.00288
Inclination
74.021°
RAAN
344.8739°
Arg. of periapsis
66.9009°
True anomaly
308.6755°
Mean anomaly
308.9326°
Eccentric anomaly
308.80411°
Mean motion
3.60733 °/min
Orbital period
99.8 mins
BSTAR
0.00031349

Documentation

Showing up to 5 results
|